Weather History for Camdenton, MO

Change the Weather History Date:

Wednesday, January 23, 2013

  Actual Average (KAIZ) Record (KAIZ)
Temperature  
Mean Temperature 1 °C -  
Max Temperature 11 °C 3 °C 21 °C (2002)
Min Temperature -8 °C -6 °C -17 °C (2003)
Degree Days  
Heating Degree Days 31    
Moisture  
Dew Point -7 °C    
Average Humidity 60    
Maximum Humidity 86    
Minimum Humidity 38    
Precipitation  
Precipitation 0.00 mm - - ()
Sea Level Pressure  
Sea Level Pressure 1024 hPa    
Wind  
Wind Speed 5 km/h (West)    
Max Wind Speed 19 km/h    
Max Gust Speed -    
Visibility 16 kilometers    
Events      
Averages and records for this station are not official NWS values.
T = Trace of Precipitation, MM = Missing Value Source: NWS Daily Summary

Daily Weather History Graph

Daily Weather History Graph

Search for Another Location

Airport:

Trip Planner

Search our weather history database for the weather conditions in past years. The results will help you decide how hot, cold, wet, or windy it might be!

Date:

Astronomy

Jan. 23, 2013 Rise Set
Actual Time 7:21 AM CST 5:24 PM CST
Civil Twilight 6:53 AM CST 5:52 PM CST
Nautical Twilight 6:21 AM CST 6:24 PM CST
Astronomical Twilight 5:50 AM CST 6:55 PM CST
Moon 2:35 PM CST (1/23) 4:32 AM CST (1/23)
Length of Visible Light 10h 59m
Length of Day
10h 02m
Waxing Gibbous, 89% of the Moon is Illuminated
Jan 23
Waxing Gibbous
Jan 26
Full
Feb 3
Last Quarter
Feb 10
New
Feb 17
First Quarter

Hourly Weather History & Observations

Time (CST) Temp. Windchill Dew Point Humidity Pressure Visibility Wind Dir Wind Speed Gust Speed Precip Events Conditions
12:15 AM -6.0 °C - -14.0 °C 54% 1025.3 hPa 16.1 km Calm Calm - N/A   Clear
12:35 AM -6.0 °C - -14.0 °C 54% 1025.3 hPa 16.1 km Calm Calm - N/A   Clear
12:55 AM -7.0 °C - -14.0 °C 58% 1024.9 hPa 16.1 km Calm Calm - N/A   Clear
1:15 AM -7.0 °C - -14.0 °C 58% 1024.6 hPa 16.1 km Calm Calm - N/A   Clear
1:35 AM -7.0 °C - -13.0 °C 63% 1024.6 hPa 16.1 km Calm Calm - N/A   Clear
1:55 AM -7.0 °C - -13.0 °C 63% 1024.6 hPa 16.1 km Calm Calm - N/A   Clear
2:15 AM -7.0 °C - -13.0 °C 63% 1024.6 hPa 16.1 km Calm Calm - N/A   Clear
2:35 AM -7.0 °C - -13.0 °C 63% 1024.6 hPa 16.1 km Calm Calm - N/A   Clear
2:55 AM -7.0 °C - -13.0 °C 63% 1024.6 hPa 16.1 km Calm Calm - N/A   Clear
3:15 AM -7.0 °C - -13.0 °C 63% 1024.3 hPa 16.1 km Calm Calm - N/A   Clear
3:35 AM -7.0 °C - -13.0 °C 63% 1023.9 hPa 16.1 km Calm Calm - N/A   Clear
3:55 AM -8.0 °C -11.0 °C -13.0 °C 68% 1023.9 hPa 16.1 km East 5.6 km/h / 1.5 m/s - N/A   Clear
4:15 AM -8.0 °C -11.0 °C -12.0 °C 73% 1023.6 hPa 16.1 km ESE 5.6 km/h / 1.5 m/s - N/A   Clear
4:35 AM -8.0 °C - -11.0 °C 79% 1023.9 hPa 16.1 km Calm Calm - N/A   Clear
4:55 AM -8.0 °C - -11.0 °C 79% 1023.6 hPa 16.1 km Calm Calm - N/A   Clear
5:15 AM -7.0 °C -9.8 °C -10.0 °C 80% 1023.6 hPa 16.1 km SE 5.6 km/h / 1.5 m/s - N/A   Clear
5:35 AM -8.0 °C - -11.0 °C 79% 1023.9 hPa 16.1 km Calm Calm - N/A   Clear
5:55 AM -7.0 °C -9.8 °C -11.0 °C 74% 1023.6 hPa 16.1 km South 5.6 km/h / 1.5 m/s - N/A   Clear
6:15 AM -7.0 °C -9.8 °C -10.0 °C 80% 1023.9 hPa 16.1 km South 5.6 km/h / 1.5 m/s - N/A   Clear
6:35 AM -6.0 °C - -8.0 °C 86% 1023.6 hPa 16.1 km Calm Calm - N/A   Clear
6:55 AM -5.0 °C - -8.0 °C 80% 1023.9 hPa 16.1 km Calm Calm - N/A   Clear
7:15 AM -6.0 °C -8.7 °C -8.0 °C 86% 1023.9 hPa 16.1 km South 5.6 km/h / 1.5 m/s - N/A   Clear
7:35 AM -6.0 °C -8.7 °C -9.0 °C 80% 1023.6 hPa 16.1 km South 5.6 km/h / 1.5 m/s - N/A   Clear
7:55 AM -6.0 °C -8.7 °C -8.0 °C 86% 1023.6 hPa 16.1 km South 5.6 km/h / 1.5 m/s - N/A   Clear
8:15 AM -2.0 °C -5.5 °C -6.0 °C 74% 1023.6 hPa 16.1 km South 9.3 km/h / 2.6 m/s - N/A   Clear
8:35 AM -1.0 °C -3.7 °C -6.0 °C 69% 1023.9 hPa 16.1 km SSW 7.4 km/h / 2.1 m/s - N/A   Clear
8:55 AM 0.0 °C -3.6 °C -5.0 °C 69% 1023.9 hPa 16.1 km SSW 11.1 km/h / 3.1 m/s - N/A   Clear
9:15 AM 0.0 °C -4.0 °C -5.0 °C 69% 1023.6 hPa 16.1 km SSW 13.0 km/h / 3.6 m/s - N/A   Clear
9:35 AM 1.0 °C -1.9 °C -4.0 °C 70% 1023.6 hPa 16.1 km SW 9.3 km/h / 2.6 m/s - N/A   Clear
9:55 AM 2.0 °C -1.2 °C -5.0 °C 60% 1023.6 hPa 16.1 km SSW 11.1 km/h / 3.1 m/s - N/A   Clear
10:15 AM 3.0 °C 1.0 °C -4.0 °C 60% 1023.6 hPa 16.1 km SSW 7.4 km/h / 2.1 m/s - N/A   Clear
10:35 AM 4.0 °C 2.1 °C -4.0 °C 56% 1023.6 hPa 16.1 km SSW 7.4 km/h / 2.1 m/s - N/A   Clear
11:35 AM 6.0 °C 3.7 °C -3.0 °C 53% 1022.9 hPa 16.1 km SSW 11.1 km/h / 3.1 m/s - N/A   Clear
11:55 AM 7.0 °C 4.9 °C -3.0 °C 49% 1022.6 hPa 16.1 km WSW 11.1 km/h / 3.1 m/s - N/A   Clear
12:15 PM 7.0 °C 4.3 °C -2.0 °C 53% 1021.9 hPa 16.1 km SW 14.8 km/h / 4.1 m/s - N/A   Clear
12:35 PM 8.0 °C 6.1 °C -2.0 °C 50% 1021.6 hPa 16.1 km WSW 11.1 km/h / 3.1 m/s - N/A   Clear
12:55 PM 8.0 °C 5.5 °C -2.0 °C 50% 1021.6 hPa 16.1 km West 14.8 km/h / 4.1 m/s - N/A   Clear
1:15 PM 9.0 °C - -2.0 °C 46% 1020.9 hPa 16.1 km WSW 14.8 km/h / 4.1 m/s - N/A   Clear
1:35 PM 10.0 °C - -2.0 °C 43% 1020.9 hPa 16.1 km SW 16.7 km/h / 4.6 m/s - N/A   Clear
1:55 PM 10.0 °C - -2.0 °C 43% 1020.9 hPa 16.1 km West 13.0 km/h / 3.6 m/s - N/A   Clear
2:15 PM 10.0 °C - -2.0 °C 43% 1020.9 hPa 16.1 km West 18.5 km/h / 5.1 m/s - N/A   Clear
2:35 PM 10.0 °C - -3.0 °C 40% 1020.9 hPa 16.1 km West 11.1 km/h / 3.1 m/s - N/A   Clear
2:55 PM 10.0 °C - -3.0 °C 40% 1020.5 hPa 16.1 km West 13.0 km/h / 3.6 m/s - N/A   Clear
3:15 PM 11.0 °C - -3.0 °C 38% 1020.9 hPa 16.1 km West 13.0 km/h / 3.6 m/s - N/A   Clear
3:35 PM 10.0 °C - -3.0 °C 40% 1020.5 hPa 16.1 km West 9.3 km/h / 2.6 m/s - N/A   Clear
3:55 PM 11.0 °C - -3.0 °C 38% 1020.9 hPa 16.1 km WNW 7.4 km/h / 2.1 m/s - N/A   Clear
4:15 PM 10.0 °C - -3.0 °C 40% 1020.9 hPa 16.1 km NW 13.0 km/h / 3.6 m/s - N/A   Clear
4:35 PM 8.0 °C 6.4 °C -3.0 °C 46% 1020.9 hPa 16.1 km NNW 9.3 km/h / 2.6 m/s - N/A   Clear
4:55 PM 8.0 °C 6.1 °C -3.0 °C 46% 1021.2 hPa 16.1 km NNW 11.1 km/h / 3.1 m/s - N/A   Clear
5:15 PM 7.0 °C 4.5 °C -4.0 °C 46% 1021.6 hPa 16.1 km NW 13.0 km/h / 3.6 m/s - N/A   Clear
5:55 PM 6.0 °C 4.0 °C -4.0 °C 49% 1021.9 hPa 16.1 km NW 9.3 km/h / 2.6 m/s - N/A   Clear
6:15 PM 5.0 °C 2.1 °C -4.0 °C 53% 1022.2 hPa 16.1 km NNW 13.0 km/h / 3.6 m/s - N/A   Clear
6:35 PM 5.0 °C 2.1 °C -4.0 °C 53% 1022.2 hPa 16.1 km NNW 13.0 km/h / 3.6 m/s - N/A   Clear
6:55 PM 5.0 °C 1.8 °C -4.0 °C 53% 1023.2 hPa 16.1 km NNW 14.8 km/h / 4.1 m/s - N/A   Clear
7:15 PM 4.0 °C 0.9 °C -4.0 °C 56% 1023.6 hPa 16.1 km NNW 13.0 km/h / 3.6 m/s - N/A   Clear
7:35 PM 3.0 °C 0.0 °C -5.0 °C 56% 1023.9 hPa 16.1 km NNW 11.1 km/h / 3.1 m/s - N/A   Clear
7:55 PM 3.0 °C 0.5 °C -5.0 °C 56% 1023.9 hPa 16.1 km NW 9.3 km/h / 2.6 m/s - N/A   Clear
8:15 PM 3.0 °C 1.0 °C -5.0 °C 56% 1024.3 hPa 16.1 km NNW 7.4 km/h / 2.1 m/s - N/A   Clear
8:35 PM 2.0 °C -0.7 °C -5.0 °C 60% 1024.3 hPa 16.1 km NNW 9.3 km/h / 2.6 m/s - N/A   Clear
8:55 PM 2.0 °C 0.5 °C -5.0 °C 60% 1024.6 hPa 16.1 km NW 5.6 km/h / 1.5 m/s - N/A   Clear
9:15 PM 2.0 °C -1.2 °C -5.0 °C 60% 1025.3 hPa 16.1 km NNW 11.1 km/h / 3.1 m/s - N/A   Clear
9:35 PM 1.0 °C -2.4 °C -5.0 °C 65% 1025.6 hPa 16.1 km NNW 11.1 km/h / 3.1 m/s - N/A   Clear
9:55 PM 1.0 °C -1.4 °C -5.0 °C 65% 1025.6 hPa 16.1 km North 7.4 km/h / 2.1 m/s - N/A   Clear
10:15 PM 1.0 °C -2.8 °C -6.0 °C 60% 1026.3 hPa 16.1 km North 13.0 km/h / 3.6 m/s - N/A   Clear
10:35 PM 1.0 °C -3.4 °C -6.0 °C 60% 1026.3 hPa 16.1 km North 16.7 km/h / 4.6 m/s - N/A   Clear
10:55 PM 0.0 °C -3.6 °C -6.0 °C 64% 1026.6 hPa 16.1 km North 11.1 km/h / 3.1 m/s - N/A   Clear
11:15 PM 0.0 °C -3.1 °C -6.0 °C 64% 1027.3 hPa 16.1 km NNW 9.3 km/h / 2.6 m/s - N/A   Clear
11:35 PM 0.0 °C -4.0 °C -7.0 °C 60% 1027.7 hPa 16.1 km North 13.0 km/h / 3.6 m/s - N/A   Clear
11:55 PM -1.0 °C -3.0 °C -7.0 °C 64% 1027.7 hPa 16.1 km North 5.6 km/h / 1.5 m/s - N/A   Clear